Other Public Products
Issued by NWS Grand Forks, ND

Home | Current Version | Previous Version | Graphics & Text | Print | Product List | Glossary On
Versions: 1 2 3 4 5 6 7 8 9 10 11 12 13 14 15 16 17 18 19 20 21 22 23 24 25 26 27 28 29 30 31 32 33 34 35 36 37 38 39 40 41 42 43 44 45 46 47 48 49 50
000
FPUS83 KFGF 240510
OPUFGF
PRAIRIE TO PINES WEATHER ROUNDUP
NATIONAL WEATHER SERVICE EASTERN NORTH DAKOTA/GRAND FORKS ND
1200 AM CDT THU AUG 24 2017

 **SATELLITE DATA USED TO AUGMENT SKY COVER AT AUTOMATED STATIONS**
 *****  WEATHER ACROSS EASTERN NORTH DAKOTA  *****

CITY           SKY/WX    TMP DP  RH WIND       PRES   REMARKS
GRAND FORKS    CLOUDY    57  55  93 NE6       30.08R
GRAND FORKS AF CLOUDY    55  53  95 N5        30.08S
GRAND CITY NWS NOT AVBL
BUXTON         NOT AVBL
DEVILS LAKE    CLOUDY    56  51  84 E13       30.07R
FARGO          FAIR      59  54  83 E8        30.03F
WAHPETON ARPT  FAIR      59  50  72 E15G22    30.05R
$$

 *****  WEATHER ACROSS CENTRAL AND WESTERN NORTH DAKOTA  *****

CITY           SKY/WX    TMP DP  RH WIND       PRES   REMARKS
JAMESTOWN      FAIR      57  50  77 E12       30.01R
BISMARCK       FAIR      63  57  81 SE3       29.95S
MINOT          FAIR      59  53  80 E13       30.00R
MINOT AFB      FAIR      59  51  76 E13       29.99R
GARRISON         N/A     61  57  87 NE8       29.95R
WILLISTON      FAIR      69  51  52 VRB3      29.95R
DICKINSON      FAIR      65  54  67 S9        29.95S
HETTINGER      FAIR      66  56  70 SE10      29.99S
$$

 *****  OTHER OBSERVATIONS NORTHEAST NORTH DAKOTA  *****

CITY           SKY/WX    TMP DP  RH WIND       PRES   REMARKS
WALHALLA       FAIR      50  50 100 CALM      30.12R
LANGDON        CLOUDY    52  52 100 E13G18    30.10S
CAVALIER       FAIR      50  50 100 CALM      30.11S
GRAFTON        FAIR      50  50 100 NE6       30.12S
CANDO          CLOUDY    52  52 100 E7        30.09S
FORT TOTTEN      N/A     56  50  80 E8        29.95S
ROLLA          FAIR      48  48 100 NE5       30.09S
RUGBY          CLOUDY    55  54  94 E21G28    30.03R
 ***** THE ABOVE OBSERVATIONS ARE NON NWS ARE NOT QUALITY
        CONTROLLED AND MAY MIS-REPORT RAIN FOR SNOW...
$$

 *****  OTHER OBSERVATIONS SOUTHEAST NORTH DAKOTA *****

CITY           SKY/WX    TMP DP  RH WIND       PRES   REMARKS
COOPERSTOWN    FAIR      55  52  88 E9        30.07R
VALLEY CITY      N/A     57  52  82 E9G17     30.06R
OAKES          NOT AVBL
GWINNER        CLEAR     57  55  94 CALM      30.02R
SHEYENNE NWR     N/A     60  56  85 E10       29.95S
BUFFALO        NOT AVBL
WYNDMERE       NOT AVBL
 ***** THE ABOVE OBSERVATIONS ARE NON NWS ARE NOT QUALITY
       CONTROLLED AND MAY MIS-REPORT RAIN FOR SNOW...
$$

  *****  WEATHER ACROSS NORTHERN MINNESOTA  *****

CITY           SKY/WX    TMP DP  RH WIND       PRES   REMARKS
FLAG ISLAND    FAIR      55  46  71 CALM      30.12R
WARROAD        FAIR      48  45  87 N5        30.12S
ROSEAU         FOG       43  39  87 CALM      30.12S VSB 1/4
HALLOCK        FAIR      48  46  93 E5        30.11S
THF RVR FALLS  CLOUDY    52  51  97 E9        30.11S
HALSTAD        NOT AVBL
FOSSTON          N/A     52  50  93 E3        30.10S
BAUDETTE       FAIR      44  43  96 CALM      30.12S FOG
WASKISH        FOG       45  43  93 CALM      30.12S VSB 3/4
CROOKSTON      CLOUDY    55  54  94 SE7       30.09S
$$
  *****  WEATHER ACROSS CENTRAL AND WEST MINNESOTA  *****

CITY           SKY/WX    TMP DP  RH WIND       PRES   REMARKS
BEMIDJI        FAIR      50  50 100 CALM      30.11R FOG
PARK RAPIDS    MOCLDY    56  54  93 SE5       30.10R
WADENA         FAIR      55  52  88 E6        30.10S
DETROIT LAKES  FAIR      55  54  94 SE8       30.09F
MOORHEAD       HVY RAIN  59  54  82 SE10      30.04S
FERGUS FALLS   MOCLDY    61  50  67 E13G21    30.06R
ELBOW LAKE     FAIR      60  53  76 NE14G23   30.06S
MORRIS MN      MOCLDY    61  55  82 E7        30.04R
STAPLES        MOCLDY    54  52  94 CALM      30.10F
WHEATON        MOCLDY    59  55  88 SE6       30.05R
$$
  *****  WEATHER ELSEWHERE ACROSS MINNESOTA  *****

CITY           SKY/WX    TMP DP  RH WIND       PRES   REMARKS
DULUTH         CLOUDY    53  52  96 N5        30.09S
INTRNTL FALLS  FOG       41  39  93 CALM      30.12R VSB 1/2
ELY            FAIR      45  45 100 CALM      30.11S
CLOQUET        FAIR      52  48  87 CALM      30.10S
BRAINERD       LGT RAIN  53  53 100 S5        30.11F
HIBBING        FAIR      49  49 100 NW3       30.10S
ALEXANDRIA     FAIR      60  51  72 E17G23    30.10R
SAINT CLOUD    CLOUDY    60  51  72 NE15G21   30.11R
MINNEAPOLIS    CLOUDY    65  51  60 E9        30.08R
$$

  *****  WEATHER ACROSS SOUTH DAKOTA  *****

CITY           SKY/WX    TMP DP  RH WIND       PRES   REMARKS
SIOUX FALLS    MOCLDY    70  60  70 S12       29.99S
BROOKINGS      MOCLDY    65  60  84 SE10      30.00S
WATERTOWN      FAIR      64  60  87 E5        30.00R
HURON          FAIR      69  61  75 SE13      29.93S
SISSETON         N/A     60  57  89 CALM      30.02R
ABERDEEN       FAIR      59  57  93 E6        29.96F
MITCHELL       FAIR      67  61  81 SE9       29.94S
PIERRE         FAIR      66  60  81 NE10      29.90R
MOBRIDGE       FAIR      64  60  87 E7        29.93S
RAPID CITY     FAIR      69  54  58 SW6       29.99R
$$

  *****  SOME WEATHER IN NEARBY STATES *****

CITY           SKY/WX    TMP DP  RH WIND       PRES   REMARKS
GLASGOW MT     FAIR      76  40  27 E17       29.88R
GREAT FALLS MT FAIR      68  33  27 W5        29.93S
CHEYENNE WY    FAIR      65  44  46 W8        30.16F
SCOTTSBLUFF NE FAIR      71  48  43 W8        30.01S
OMAHA NE       FAIR      69  58  67 S6        30.04R
DES MOINES IA  CLOUDY    70  54  56 N5        30.08R
DAVENPORT IA   FAIR      58  54  86 W6        30.07R
CHICAGO IL     FAIR      65  55  70 SW5       30.03S
EAU CLAIRE WI  CLOUDY    56  52  86 NE5       30.08R
LA CROSSE WI   FAIR      61  55  81 CALM      30.06R
$$

  *****  SOME NATIONAL WEATHER *****

CITY           SKY/WX    TMP DP  RH WIND       PRES   REMARKS
LA GUARDIA NY  FAIR      74  57  55 NW7       29.87S
RALEIGH NC     FAIR      74  72  93 CALM      29.89F
ATLANTA GA     FAIR      75  64  68 NW10      29.93S
NEW ORLEANS LA MOCLDY    81  76  84 CALM      29.90S
OKLAHOMA CITY  FAIR      70  58  65 E9        30.03S
ALBUQUERQUE NM CLOUDY    70  53  54 SE18      30.19S
SALT LAKE CITY FAIR      75  50  41 N13       30.03S
LOS ANGELES CA CLOUDY    66  62  87 W8        29.93R
BOISE ID       FAIR      76  50  40 SE10      29.95S
SEATTLE WA     CLOUDY    65  57  75 W5        29.98S
$$

*** WEATHER ACROSS MANITOBA...SASKATCHEWAN AND ONTARIO ***
                ***ONTARIO***

CITY           SKY/WX    TMP DP  RH WIND       PRES   REMARKS
GERALDTON      CLEAR     43  39  87 NW2       30.07R
THUNDER BAY    CLEAR     39  39 100 W5        30.10S
SIOUX LOOKOUT  CLEAR     37  37 100 CALM      30.12R
TORONTO        CLEAR     54  48  82 W7        29.95R
BIG TROUT LK   CLEAR     50  45  81 NW6       30.11R
PICKLE LAKE    NOT AVBL
DRYDEN         CLEAR     50  45  81 NW5       30.12S
KENORA         PTCLDY    50  46  87 NE6       30.13S
$$
                *** MANITOBA***

CITY           SKY/WX    TMP DP  RH WIND       PRES   REMARKS
BRANDON        CLEAR     46  46 100 E8        30.12R
DAUPHIN        CLEAR     46  46 100 E6        30.12S
ISLAND LAKE    CLEAR     50  45  81 N6        30.16S
PILOT MOUND      N/A     48  46  93 E7          N/A
THE PAS        PTCLDY    54  50  87 SE6       30.12S
THOMPSON       PTCLDY    39  34  81 VRB2      30.15S
WINNIPEG       CLEAR     48  46  93 CALM      30.13R
LYNN LAKE      CLEAR     52  48  87 SE3       30.10S
CHURCHILL      CLEAR     48  43  81 S7        30.14R
GILLAM         CLEAR     46  39  76 SW3       30.15S
$$
                ***SASKATCHEWAN***

CITY           SKY/WX    TMP DP  RH WIND       PRES   REMARKS
ESTEVAN        PTCLDY    54  52  94 E14       30.02R
KINDERSLEY     PTCLDY    66  50  55 E18G24    29.87F
LLOYDMINSTER   PTCLDY    61  52  72 E12G17    29.89S
PRINCE ALBERT  PTCLDY    59  52  77 SE8       30.03S
REGINA         CLEAR     61  52  72 E20G28    30.01S
YORKTON        CLEAR     52  48  87 SE8       30.08S



USA.gov is the U.S. government's official web portal to all federal, state and local government web resources and services.